sat.trackr.live / text

‹ back to catalog

KUIPER-00415

NORAD 68930 · 2026-098M

PAYLOAD ACTIVE UNKNOWN

§ Identity

Operator
Country
US
Launch date
2026-04-30
Launch site
FRGUI
Launch vehicle
Mass (kg)
RCS (m²)

External: N2YO · Heavens-Above · Gunter

§ Orbital elements

Epoch: 2026-05-25T01:42:22.416192Z

Period
93.93 min
Inclination
51.8777°
Eccentricity
0.0011112
Mean motion
15.33117811 rev/d
Perigee alt
458.9 km
Apogee alt
474.1 km
Semi-major
6,844.7 km
B*
-2.3469e-4
RAAN
179.3314°
Arg perigee
56.3541°
Mean anomaly
303.8502°
Rev number
379

§ Raw data

KUIPER-004151 68930U 26098M   26145.07109278 -.00008008  00000+0 -23469-3 0  99972 68930  51.8777 179.3314 0011112  56.3541 303.8502 15.33117811  3792

JSON: /api/v1/satellites/68930 · /tle

For live sub-satellite position, see the globe view (requires WebGL).

§ Visibility from observer

Set your observer location to see the next 7 days of passes ≥ 10°. The values pass through the URL so the page stays shareable.

No JS? Fill the form by hand. The geolocation button needs JavaScript.